SL-12 R/B(AUX MOTOR), 15338

Orbit data source: Space-Track

SL-12 R/B(AUX MOTOR), 15338 is space debris in LEO originally from a launch on Fri, 28 Sep 1984 UTC launched from the Tyuratam Missile And Space Complex (TTMTR). Debris objects in space refer to the collection of defunct objects orbiting the Earth. Examples of debris include non-operational satellites, rocket bodies, and fragments generated from explosions, collisions, or faulty payload assembly.

Loading next visibility...
SL-12 R/B(AUX MOTOR) details
Identifier
15338, 1984-106F
Orbit
LEO
Last TLE update6 hours ago
Origin
Flag of CISRVSN (CIS)
ManufacturerNPO Energiya
MissionSpacecraft
Bus & MotorSOZ, Unknown motor
Mass110 kg wet, 56 kg dry
Launch date (UTC)
1984-09-28 (40 years ago)
Launch vehicleUnknown
Launch site
Tyuratam Missile And Space Complex (TTMTR)
Object type
Payload
Rocket body
Debris
Shape & HBRCyl, 1.1 m
Radar Cross Section0.660 m², Medium (>0.1 m² and < 1m²)

Expand to show TLE details & history

TLE from 6 hours ago
0 SL-12 R/B(AUX MOTOR)
1 15338U 84106F   24361.59196223  .00000223  00000-0  14677-3 0  9997
2 15338  66.5693 215.9276 0017931 305.8961  54.0465 14.18995434 81946
Epoch: 2024-12-26T14:12Z
Definitive object data (Epoch: 2024-12-26T14:12:25.536Z)
Latitude-0.00006°
Longitude-92.74797°
Altitude823.265 km
Speed7.446 km/s
True Right ascension14h 23m 42s
True Declination0° 00' 00"
Sunlit
Object was in daylight at TLE epoch
Visualization TLE readout
Latitude-54.93282°
Longitude124.47141°
Altitude843.289 km
Speed7.434 km/s
Apparent Right ascension06h 27m 59s
Apparent Declination-49° 50' 24"
Sunlit
Object is in daylight
Visualization observer readout
Local Sidereal Time19:48:16
Azimuth131.741° SE
Elevation-72.746°
Doppler factor1
Orbital elements
Apogee altitude840.071 km
Perigee altitude814.231 km
Semi-major axis7,205.288 km
Eccentricity0.0017931
Inclination66.5693°
RAAN215.9276°
Arg. of periapsis305.8961°
True anomaly54.21305°
Mean anomaly54.0465°
Eccentric anomaly54.12975°
Mean motion3.54867 °/min
BSTAR0.00014677
Orbital period101.45 mins
Loading maneuver chart data...

SL-12 R/B(AUX MOTOR) Visibility forecast

Observer location: undefined°, undefined

Span
Click to sort rows by Start time (UTC) header in descending order
Start Az.
Max El. time (UTC)
Max El. Az.
Max El.
End time (UTC)
End Az.
9 mins2024-12-27 00:54:26.728Z343.95° N2024-12-27 00:58:26.728Z44.183° NE37.904°2024-12-27 01:03:26.728Z129.747° SE
7 mins2024-12-27 02:39:26.728Z294.705° NW2024-12-27 02:42:26.728Z256.656° W21.199°2024-12-27 02:46:26.728Z206.767° SW
9 mins2024-12-27 15:42:26.728Z188.426° SSW2024-12-27 15:46:26.728Z126.323° SE39.857°2024-12-27 15:51:26.728Z39.095° NE
7 mins2024-12-27 17:28:26.728Z272.694° WNW2024-12-27 17:31:26.728Z314.277° NW21.935°2024-12-27 17:35:26.728Z3.249° NNE
|